Regional Weather Roundup
Issued by NWS

Home | Current Version | Previous Version | Text Only | Print | Product List | Glossary Off
Versions: 1 2 3 4 5 6 7 8 9 10 11 12 13 14 15 16 17 18 19 20 21 22 23 24 25 26 27 28 29 30 31 32 33 34 35 36 37 38 39 40 41 42 43 44 45 46 47 48 49 50

817
ASUS43 KMPX 170310
RWRMN
WEATHER ROUNDUP FOR MINNESOTA
NATIONAL WEATHER SERVICE TWIN CITIES/CHANHASSEN MN
900 PM CST TUE JAN 16 2018


NOTE: "FAIR" INDICATES FEW OR NO CLOUDS BELOW 12,000 FEET WITH NO
SIGNIFICANT WEATHER AND/OR OBSTRUCTIONS TO VISIBILITY. N/A MEANS
CURRENT SKY AND/OR WEATHER CONDITIONS ARE NOT AVAILABLE.

MNZ060>063-068>070-170400-
   Twin Cities Metro

CITY           SKY/WX    TMP DP  RH WIND       PRES   REMARKS
TWIN CITIES    FAIR       2  -3  80 SW6       30.56F WCI  -9
ST PAUL        FAIR       1  -4  79 CALM      30.58F
CRYSTAL        FAIR       1  -7  68 SW6       30.55F WCI -10
LAKEVILLE      FAIR      -2  -6  84 W6        30.55F WCI -14
EDEN PRAIRIE   FAIR      -1  -6  79 SW8       30.55F WCI -15
SOUTH ST PAUL  FAIR       1  -4  78 SW3       30.57F
LAKE ELMO      FAIR       1  -4  78 SW5       30.55F WCI  -8
$$
MNZ001>005-007-008-013>017-022>024-027-028-170400-
   Northwest Minnesota

CITY           SKY/WX    TMP DP  RH WIND       PRES   REMARKS
BEMIDJI        FAIR       5  -9  53 SW9       30.34F WCI -10
HALLOCK        FAIR       1  -4  78 S17       30.29F WCI -19
ROSEAU         FAIR       5  -2  72 SW15      30.28F WCI -13
WARROAD        FAIR       3  -6  66 SW16      30.26F WCI -16
THIEF RVR FALL FAIR       2  -4  76 S17       30.35F WCI -18
CROOKSTON      FAIR       3  -2  78 S20       30.38F WCI -18
FOSSTON        FAIR       0  -8  71 S16       30.37F WCI -21
DETROIT LAKES  FAIR       5  -2  72 S8        30.42F WCI  -8
MOORHEAD       FAIR       3  -4  72 S9        30.45F WCI -11
PARK RAPIDS    FAIR       2  -7  66 SW8       30.39F WCI -12
MAHNOMEN       FAIR       0  -6  75 S14       30.39F WCI -18
$$
MNZ006-009>011-018-025>026-170400-
   North Central Minnesota

CITY           SKY/WX    TMP DP  RH WIND       PRES   REMARKS
BAUDETTE       FAIR       3  -9  57 SW12      30.26F WCI -13
FLAG ISLAND    FAIR       1  -8  66 SW16      30.21F WCI -18
INTL FALLS     MOCLDY     6  -8  52 SW13      30.28F WCI -10
WASKISH        FAIR       5  -9  51 SW9       30.32F WCI  -9
BIG FORK       FAIR       7  -4  61 SW10      30.32F WCI  -8
LONGVILLE      FAIR       3  -8  60 SW6       30.39F WCI  -8
GRAND RAPIDS   FAIR       7  -2  66 SW8       30.38F WCI  -6
CRANE LAKE     FAIR       7  -2  66 SW5       30.33F WCI  -2
ORR            FAIR       5  -6  61 SW5       30.29F WCI  -4
COOK           MOCLDY     7   0  72 SW7       30.33F WCI  -5
WALKER         FAIR       4  -9  53 SW10G16   30.37F WCI -11
$$
MNZ012-019>021-037-170400-
   Northeast Minnesota

CITY           SKY/WX    TMP DP  RH WIND       PRES   REMARKS
DULUTH         FAIR       4  -2  76 W13       30.36F WCI -13
ELY            MOCLDY     5  -2  72 SW8       30.32F WCI  -8
HIBBING        FAIR       3  -3  76 S3        30.35F
EVELETH        FAIR       4  -4  69 SW7       30.35F WCI  -8
DULUTH HARBOR  MOCLDY     7   1  78 SW12      30.46F WCI  -9
TWO HARBORS    MOCLDY    10   1  67 SW8       30.36F WCI  -1
SILVER BAY     CLOUDY     9   1  72 SW5       30.34F WCI   0
GRAND MARAIS     N/A     14   4  64 W10       30.35F WCI   1
G MARAIS ARPRT CLOUDY     7  -4  61 W3        30.23F
$$
MNZ029>031-032-039>041-046>048-054>057-064-170400-
   West Central Minnesota

CITY           SKY/WX    TMP DP  RH WIND       PRES   REMARKS
FERGUS FALLS   FAIR       0  -6  78 S8        30.50  WCI -15
WHEATON        CLOUDY     3  -2  78 S9        30.49F WCI -11
MORRIS         CLOUDY     1  -4  78 S8        30.47F WCI -12
ALEXANDRIA     FAIR       1  -4  79 SW9       30.46F WCI -14
ELBOW LAKE     FAIR       0  -4  82 S10       30.47F FOG     WCI -16
WADENA         FAIR       0  -8  71 SW7       30.42F WCI -13
GLENWOOD       FAIR      -2  -6  84 SW7       30.48F WCI -16
APPLETON       CLOUDY     3  -2  78 S9        30.51F WCI -11
BENSON         CLOUDY     0  -6  78 SW8       30.51F WCI -15
ORTONVILLE     CLOUDY     3  -2  78 S7        30.49F WCI  -9
MADISON        CLOUDY     1  -2  85 S8        30.53F WCI -12
WILLMAR        FAIR       0  -6  78 CALM      30.54F
$$
MNZ033>034-036-042>043-049>051-058-059-170400-
   Central Minnesota

CITY           SKY/WX    TMP DP  RH WIND       PRES   REMARKS
ST CLOUD       FAIR      -4  -7  87 SW5       30.51F WCI -15
SAUK CENTRE      N/A     -2  -6  84 CALM      30.48F
PAYNESVILLE    FAIR       0  -3  86 SW6       30.51F WCI -12
AITKIN         FAIR       3  -6  66 SW6       30.41F WCI  -8
PINE RIVER     FAIR       1  -8  66 SW3       30.44F
BRAINERD       FAIR       3  -5  69 SW7       30.44F WCI  -9
STAPLES        FAIR       0  -8  71 SW5       30.43F WCI -10
LONG PRAIRIE   FAIR      -2  -6  84 S5        30.47S WCI -12
LITTLE FALLS   FAIR      -2 -11  65 S3        30.49F
LITCHFIELD     FAIR       0  -4  85 CALM      30.53F
BUFFALO        FAIR      -1  -5  82 S3        30.55F
MAPLE LAKE     FAIR       1  -3  84 MISG      30.53F
HUTCHINSON     FAIR      -1  -5  82 SW3       30.54F
$$
MNZ037-044-045-052-053-170400-
   East Central Minnesota

CITY           SKY/WX    TMP DP  RH WIND       PRES   REMARKS
PRINCETON      FAIR       0  -4  85 SW3       30.51S
MORA           FAIR       1  -6  71 SW3       30.51S
CAMBRIDGE        N/A      0  -8  71 S3        30.53F
RUSH CITY      FAIR      -1  -6  79 SW3       30.52F
MOOSE LAKE     FAIR       1  -4  78 SW3       30.43F
HINCKLEY       FAIR       0  -6  78 S3        30.49S
CLOQUET        FAIR       5  -4  66 W9        30.39F WCI  -9
MCGREGOR       FAIR       7   0  72 SW6       30.42F WCI  -3
$$
MNZ071>073-080-081-089-090-097-098-170400-
   Southwest Minnesota

CITY           SKY/WX    TMP DP  RH WIND       PRES   REMARKS
MONTEVIDEO     CLOUDY     1  -2  85 SW8       30.51F WCI -12
GRANITE FALLS  CLOUDY     0  -4  84 S12       30.53F WCI -18
CANBY          CLOUDY     2  -3  77 E3        30.53F
MARSHALL       CLOUDY     1  -4  79 S6        30.55R WCI -10
REDWOOD FALLS  CLOUDY    -2  -6  83 SW9       30.54F WCI -18
OLIVIA         CLOUDY     0  -4  85 SW5       30.53F WCI -10
PIPESTONE      CLOUDY    -2  -6  84 W7        30.50S WCI -16
WINDOM         CLOUDY     1 -11  55 SW9       30.54S WCI -14
WORTHINGTON    CLEAR      0  -4  83 SW8       30.54F WCI -14
JACKSON        CLOUDY     0  -6  78 W7        30.55S WCI -13
SLAYTON        CLOUDY     0  -4  83 SW7       30.52S WCI -13
$$
MNZ065>067-074>077-082>085-091>093-170400-
   South Central Minnesota

CITY           SKY/WX    TMP DP  RH WIND       PRES   REMARKS
MANKATO        FAIR      -2  -6  83 SW8       30.58F WCI -17
NEW ULM        CLOUDY    -2  -8  78 SW7       30.57F WCI -16
ST JAMES       CLOUDY    -2  -6  84 S6        30.59S WCI -14
FAIRMONT       CLOUDY     1  -4  79 W8        30.59S WCI -13
GLENCOE        FAIR       0  -4  85 SW3       30.55F
FARIBAULT      FAIR      -6  -9  84 CALM      30.57S
OWATONNA       FAIR      -4  -8  84 SW6       30.56F WCI -16
WASECA         FAIR      -2  -8  78 SW6       30.58F WCI -14
ALBERT LEA     FAIR      -2  -8  78 CALM      30.55F
$$
MNZ078>079-086>088-094>096-170400-
   Southeast Minnesota

CITY           SKY/WX    TMP DP  RH WIND       PRES   REMARKS
ROCHESTER      FAIR      -3  -6  87 W10       30.54F WCI -20
RED WING       FAIR      -2  -9  71 W3        30.58S
STANTON        FAIR      -4  -8  81 S3        30.56F
DODGE CENTER   FAIR      -6  -9  84 W9        30.53F WCI -22
WINONA         FAIR       3  -4  72 NW6       30.59S WCI  -8
AUSTIN         FAIR      -2  -8  78 CALM      30.56F
PRESTON        FAIR      -4  -8  82 W7        30.54F WCI -18
$$
ABBREVIATIONS USED IN REMARKS
   TC - TEMPERATURES IN CELSIUS
  WCI - WIND CHILL INDEX
   HX - HEAT INDEX
  VSB - VISIBILITY
$$




USA.gov is the U.S. government's official web portal to all federal, state and local government web resources and services.